www.pogodaiklimat.ru

Погода и климат >> Архив погоды >> Казахстан >> Карасу


ПОГОДА в Карасу

  • Прогноз погоды в Карасу
  • Монитор погоды в Карасу
  • Климат города

АРХИВ ПОГОДЫ в Карасу

Время (UTC), дата Ветер
(напр.,м/с)
 
Видим.   Явления Облачность Т
(С)
Тd
(С)
f
(%)
Тe
(С)
Тes
(С)
Комфортность P
(гПа)
Po
(гПа)
Тmin
(С)
Tmax
(С)
R
(мм)
R24
(мм)
S
(см)
21 7.08 СВ 3 н/о {гроза, ливн. осадки} 8/3 300 м
[Cb cap Ac trans Ci ing]
+18.4 +17.3 93 +19 +19 1005.6 981.7
00 8.08 С 2 10 км {гроза, ливн. осадки} 5/0 2000 м
[Ac trans Ci ing]
+16.3 +15.8 97 +16 +16 1006.3 982.1
06 8.08 З 2 10 км ясно +25.7 +16.7 58 +29 +42 душно 1006.3 982.8 +16.0 3
09 8.08 СЗ 4 10 км 3/3 1000 м
[Cu med, cong]
+29.2 +12.3 35 +30 +36 жарко 1005.5 982.4
12 8.08 З 3 10 км 3/3 1000 м
[Cu med, cong]
+30.0 +12.6 34 +31 +34 жарко 1004.7 981.6
15 8.08 штиль 0 10 км 1/0
[Ci fib]
+28.3 +14.6 43 +31 +31 душно 1005.0 981.8 +30.3
18 8.08 В 1 н/о 3/0
[Ci ing]
+21.6 +18.7 84 +26 +26 душно 1005.5 981.8 +30.3
21 8.08 ЮВ 2 н/о зарница 8/4 300 м
[Cb cap Ac lent]
+17.4 +14.5 83 +18 +18 1004.8 980.7
00 9.08 ЮВ 3 10 км 8/3 300 м
[Cb cap Ac cuf Ci ing]
+17.2 +13.5 79 +17 +17 1004.6 980.5
06 9.08 ЮЗ 6 10 км 6/0 2000 м
[Ac lent Ci ing]
+25.8 +14.4 49 +28 +31 жарко 1004.6 981.2 +17.0
09 9.08 Ю 6 10 км 5/3 1000 м
[Cu hum Ac cuf]
+30.4 +11.3 31 +31 +34 жарко 1003.6 980.5
12 9.08 З 6 10 км 6/4 1500 м
[Cu med, cong Ci ing]
+31.7 +10.3 27 +31 +32 жарко 1002.3 979.3
15 9.08 З 6 10 км 9/3 1000 м
[Cb cap Ac cast Ci ing]
+25.5 +13.8 48 +28 +28 жарко 1003.4 979.9 +31.9
18 9.08 штиль 0 н/о 9/3 600 м
[Sc Ac trans Ci ing]
+20.2 +13.6 66 +22 +22 комфорт 1004.3 980.4 +31.9
21 9.08 Ю 2 н/о в посл. час гроза {ливн. осадки} 9/6 300 м
[Cb cap Ac lent]
+18.9 +16.4 85 +21 +21 комфорт 1003.6 979.7
00 10.08 Ю 2 10 км {гроза, ливн. осадки} 8/4 600 м
[Sc Ac cuf Ci ing]
+18.6 +14.5 77 +20 +20 1003.4 979.5
09 10.08 СЗ 6 10 км 10/5 600 м
[Sc Ac lent]
+17.3 +12.6 74 +16 +17 1006.7 982.5
12 10.08 СЗ 6 10 км слабый ливневой дождь 10/6 300 м
[Cb cap Ac cuf]
+17.2 +13.6 79 +16 +17 1007.1 982.9
21 10.08 З 2 н/о 9/0 2000 м
[Ac lent Ci ing]
+11.8 +9.0 83 +11 +11 1010.0 985.3
00 11.08 ЮЗ 2 4000 м дымка 3/0
[Ci ing]
+7.6 +6.7 94 +5 +5 1009.5 984.4
06 11.08 З 8 10 км 9/3 600 м
[Sc Ac lent Ci ing]
+18.2 +10.2 60 +18 +18 1005.6 981.6 +7.1
21 11.08 СЗ 3 н/о 3/0
[Ci ing]
+13.0 +12.1 94 +12 +12 1007.5 982.9
00 12.08 С 1 10 км 8/0 2000 м
[Ac trans Ci ing]
+11.1 +9.0 87 +11 +11 1009.1 984.3
06 12.08 СЗ 3 10 км 3/3 1000 м
[Cu hum Ci ing]
+19.3 +7.1 45 +20 +27 1010.5 986.4 +10.1
09 12.08 СЗ 6 10 км 4/4 1000 м
[Cu med, cong]
+22.4 +8.2 40 +24 +26 комфорт 1010.2 986.4
12 12.08 СЗ 6 10 км 3/0
[Ci fib]
+23.4 +5.9 32 +24 +25 комфорт 1010.4 986.6
15 12.08 СЗ 2 10 км 3/0 2000 м
[Ac cast Ci ing]
+20.5 +8.5 46 +22 +22 комфорт 1011.3 987.3 +23.6
18 12.08 ЮВ 2 н/о 3/0
[Ci ing]
+14.4 +10.2 76 +14 +14 1012.7 988.1 +23.6
21 12.08 Ю 2 н/о ясно +12.0 +8.6 80 +11 +11 1013.2 988.3
00 13.08 ЮЗ 1 10 км ясно +9.8 +8.1 89 +9 +9 1013.7 988.7
06 13.08 З 3 10 км 3/0
[Ci ing]
+24.9 +14.1 51 +27 +36 жарко 1013.9 990.2 +9.5
09 13.08 СВ 3 10 км 4/4 1000 м
[Cu hum]
+27.5 +13.9 43 +30 +36 жарко 1012.8 989.3
12 13.08 В 3 10 км 5/4 1000 м
[Cu hum Ac cast]
+28.8 +13.5 39 +30 +32 жарко 1012.0 988.6
15 13.08 В 1 10 км 3/0 2000 м
[Ac lent]
+25.9 +16.5 56 +29 +29 душно 1012.2 988.6 +29.4
18 13.08 В 2 н/о 3/0
[Ci ing]
+20.4 +16.1 76 +24 +24 комфорт 1013.2 989.1 +29.4
21 13.08 ЮВ 2 н/о ясно +17.2 +14.2 83 +18 +18 1013.1 988.7
00 14.08 ЮВ 2 10 км 4/0 2000 м
[Ac cast Ci ing]
+15.8 +12.5 81 +16 +16 1012.9 988.4
06 14.08 Ю 3 10 км 8/3 1000 м
[Cu hum Ac cuf Ci ing]
+27.8 +11.7 37 +29 +33 жарко 1013.1 989.6 +15.6
09 14.08 Ю 3 10 км 8/4 1000 м
[Cu med, cong Ac lent]
+30.2 +10.2 29 +30 +33 жарко 1011.6 988.3
12 14.08 С 4 10 км гроза без осадков {ливн. осадки} 9/8 300 м
[Cb cap Ac cuf]
+19.5 +16.7 84 +22 +22 комфорт 1011.0 987.0

 

Местоположение метеостанции Карасу (Костанайская область, Казахстан): широта 52.68 долгота 65.50 высота над уровнем моря 209 м.

В архиве по умолчанию представлена погода в Карасу за последнюю неделю. Архивные данные за месяц целиком и за предыдущие месяцы, начиная с января 2011 года, Вы можете получить, выбрав интересующий диапазон дат из раскрывающегося списка и нажав кнопку "Ввод!".


*Определитесь, кто Вы:
робот инопланетянин человек

Внимание! Время в таблицах - всемирное. Для получения местного времени необходимо прибавить поправку, которая в Карасу равна 5 ч.

Смотрите также архив погоды в соседних городах и на ближайших метеорологических станциях:

Погода в Кусмурыне (Костанайская область, Казахстан) (61 км)
Погода в Железнодорожной (Костанайская область, Казахстан) (66 км)
Погода в Сарыколе (Костанайская область, Казахстан) (71 км)
Погода в Рузаевке (Северо-Казахстанская область, Казахстан) (100 км)
Погода в Есиле (Акмолинская область, Казахстан) (105 км)
Погода в Тимирязево (Северо-Казахстанская область, Казахстан) (136 км)
Погода в Костанае (Костанайская область, Казахстан) (140 км)
Погода в Костанае 2 (Костанайская область, Казахстан) (140 км)
Погода в Диевской (Костанайская область, Казахстан) (144 км)
Погода в Караменды (Костанайская область, Казахстан) (148 км)

Пояснения к столбцам:

Ветер - указаны скорость ветра в м/с - средняя за 10 мин, порывы в срок и между сроками (в фигурных скобках) и направление, откуда дует ветер: С - северный, СВ - северо-восточный, В - восточный, ЮВ - юго-восточный, Ю - южный, ЮЗ - юго-западный, З - западный, СЗ - северо-западный.
Видимость - горизонтальная дальность видимости в метрах или километрах. При видимости от 1 до 10 км при отсутствии осадков обычно наблюдается дымка, при ухудшении видимости до 1 км и менее - туман. В сухую погоду видимость может ухудшаться дымом, пылью или мглою.
Явления - указаны атмосферные явления, наблюдавшиеся в срок или в последний час перед сроком; фигурными скобками обозначены явления, наблюдавшиеся между сроками (за 1-3 часа до срока); квадратными скобками обозначены град или гололедные отложения с указанием их диаметра в мм.
Облачность - указаны через наклонную черту общая и нижняя облачность в баллах и высота нижней границы облаков в метрах; квадратными скобками обозначены формы облаков: Ci - перистые, Cs - перисто-слоистые, Cc - перисто-кучевые, Ac - высококучевые, As - высокослоистые, Sc - слоисто-кучевые, Ns - слоисто-дождевые, Cu - кучевые, Cb - кучево-дождевые. Подробнее классификацию облаков см. в Атласе облаков (PDF).
T - Температура воздуха - температура, измеренная на высоте 2 м над землей.
Td - Температура точки росы - температура, при понижении до которой содержащийся в воздухе водяной пар достигнет насыщения.
f - Относительная влажность воздуха - влажноcть воздуха, измеренная на высоте 2 м над землей.
Te - Эффективная температура - температура, которую ощущает одетый по сезону человек в тени. Характеристика душности погоды. При расчете учитывается влияние влажности воздуха и скорости ветра на теплоощущения человека.
Tes - Эффективная температура на солнце - температура, которую ощущает человек, с поправкой на солнечный нагрев. Характеристика знойности погоды. Зависит от высоты солнца над горизонтом, облачности и скорости ветра. Ночью, в пасмурную погоду, а также при ветре 12 м/с и более поправка равна нулю.
P - Атмосферное давление - приведенное к уровню моря атмосферное давление.
Po - Атмосферное давление - измеренное на уровне метеостанции атмосферное давление.
Tmin - Минимальная температура - минимум температуры воздуха на высоте 2 м над землей.
Tmax - Максимальная температура - максимум температуры воздуха на высоте 2 м над землей.
R - Количество осадков - Количество выпавших осадков за период времени, мм. При наведении курсора мыши на число - период времени, за который выпало указанное количество осадков.
R24 - Количество осадков - Количество выпавших осадков за 24 часа, мм.
S - Снежный покров - Высота снежного покрова, см. При наведении курсора мыши на число - состояние снежного покрова и степень покрытия местности в баллах.